Temperature
15 15 15 15 15 15 15 15 15 15 14 15 15 15 15 15 15 15 15 15 15 15 15 14 14 14 14 14 14 14 14 14 14 14 14 14 13 13
15 15 15 15 15 15 15 15 15 15 14 14 14 14 14 14 14 14 14 14 14 14 14 14 14 14 14 14 13 14 14 14 13 13 13 13 13 13
15 15 15 15 15 15 15 15 14 14 14 14 14 14 14 14 14 14 14 14 14 14 14 14 13 13 13 13 13 13 13 13 13 13 13 13 13 13
14 14 14 14 14 14 14 14 14 14 14 14 14 14 13 13 14 13 13 13 13 13 13 13 13 13 13 13 13 13 13 13 13 13 13 13 12 12
14 14 14 14 14 14 14 14 14 14 14 14 14 13 13 13 13 13 13 13 13 13 13 13 13 13 13 13 13 13 13 13 13 13 12 12 12 12
14 14 14 14 14 14 14 14 14 13 13 13 13 13 13 13 13 13 13 13 13 12 12 12 12 12 12 12 12 12 12 12 12 12 12 12 12 12
14 14 13 13 13 13 13 13 13 13 13 13 13 13 13 12 12 12 12 12 12 12 12 12 12 12 12 12 12 12 12 12 12 12 12 12 12 12
13 13 13 13 13 13 13 13 13 13 13 13 13 12 12 12 12 12 12 12 11 11 12 12 12 12 12 12 12 12 12 12 12 12 12 12 11 11
13 13 13 13 13 13 13 13 13 12 12 12 12 12 12 12 12 12 12 11 11 11 11 11 11 11 11 11 11 11 11 11 11 11 11 11 11 11
13 13 13 12 12 12 12 12 12 12 12 12 12 12 12 12 12 11 11 11 11 11 11 11 11 11 11 11 11 11 11 11 11 11 11 11 11 11
12 12 12 12 12 12 12 12 12 12 12 12 12 12 12 12 11 11 11 11 11 11 11 11 11 11 11 11 11 11 11 11 11 11 11 11 11 11
12 12 12 12 12 12 12 12 12 12 12 12 12 11 11 11 11 11 11 11 10 10 10 10 10 10 10 10 10 10 10 10 10 10 10 10 10 10
12 12 12 12 11 11 11 11 11 11 11 11 11 11 11 11 11 11 11 10 10 10 10 10 10 10 10 10 10 10 10 10 10 10 10 10 10 10
12 12 12 12 11 11 11 11 11 11 11 11 11 11 10 10 10 10 10 10 10 10 10 10 10 10 10 10 10 10 10 10 10 10 10 10 10 10
12 12 12 11 11 11 11 11 10 10 10 10 10 10 10 10 10 10 10 10 10 10 10 10 10 10 10 10 10 10 10 10 9 9 9 10 10 10
12 11 11 11 11 11 11 10 10 10 10 10 10 10 10 10 10 10 10 10 9 10 10 10 10 10 10 10 10 10 9 9 9 9 9 9 9 9
11 11 11 11 11 11 10 10 10 10 10 10 10 10 10 9 9 9 9 9 9 9 9 9 9 9 9 9 9 9 9 9 9 9 9 9 9 9
11 11 11 11 10 10 10 10 10 10 10 9 9 9 9 9 9 9 9 9 9 9 9 9 9 9 9 9 9 9 9 9 9 9 9 9 9 9
11 11 11 10 10 10 10 10 10 9 9 9 9 9 9 9 9 9 9 9 9 9 9 9 9 9 8 8 9 9 9 9 9 9 9 9 9 9
11 11 11 10 10 10 10 10 9 9 9 9 9 9 9 9 9 8 8 8 8 8 8 8 8 8 8 8 8 9 9 9 8 8 9 9 9 9
11 11 10 10 10 10 10 9 9 9 9 9 9 9 8 8 8 8 8 8 8 8 8 8 8 8 8 8 8 8 8 8 8 8 8 8 8 8
11 10 10 10 10 10 10 9 9 9 8 8 8 8 8 8 8 8 8 8 8 8 8 8 8 8 8 8 8 8 8 8 8 8 8 8 8 8
10 10 10 10 10 9 9 9 9 8 8 8 8 8 8 8 8 8 8 7 7 7 8 8 8 8 8 8 8 8 8 8 8 8 8 8 8 8
Wind_Speed
1 1 1 1 1 2 2 3 3 2 1 1 1 2 1 0 0 2 3 4 5 6 6 7 8 8 8 8 8 8 8 7 7 7 7 6 5 5
0 0 0 0 1 1 2 2 2 3 2 1 1 1 1 0 2 2 3 4 4 5 7 7 7 8 8 8 8 8 8 7 7 7 7 6 5 5
1 0 1 0 1 1 1 2 2 2 2 1 0 0 0 1 2 2 3 3 4 5 6 7 7 7 7 7 7 8 8 7 7 7 7 7 6 5
1 1 1 1 1 1 1 1 2 2 3 2 1 0 0 1 1 2 2 3 3 4 5 6 6 6 6 7 7 7 7 7 7 7 7 7 6 6
0 0 0 1 1 0 1 1 1 1 2 2 1 1 0 1 2 2 2 2 2 3 4 4 5 4 4 5 6 7 7 7 7 6 7 7 7 6
0 0 0 1 1 1 1 1 1 1 2 2 2 1 1 1 1 1 1 1 2 2 2 3 3 3 3 4 5 6 7 7 7 7 7 7 7 7
1 1 0 1 1 1 1 1 2 2 2 2 2 1 1 1 1 1 2 1 1 1 2 1 2 2 2 2 3 4 6 7 7 7 7 7 7 7
1 1 1 1 1 1 1 2 3 3 3 2 2 2 2 2 1 2 2 2 1 1 2 1 2 1 2 3 4 4 5 5 6 7 8 8 8 8
0 1 1 1 2 1 1 1 1 1 3 4 3 3 3 3 3 2 2 2 2 2 2 1 1 1 2 3 4 5 5 5 5 6 7 8 9 9
0 0 0 1 1 1 1 1 1 1 1 2 3 3 3 3 4 3 3 2 1 1 2 2 1 1 1 2 4 5 5 5 5 6 6 6 6 8
1 0 0 1 2 1 1 0 1 2 2 1 2 2 2 3 4 4 3 3 1 1 2 2 1 1 1 1 3 4 5 5 5 5 6 6 6 6
1 1 1 1 2 0 1 1 1 2 2 2 2 2 1 1 2 3 4 4 2 2 2 3 2 1 1 1 2 2 3 4 5 6 6 6 6 4
2 2 1 1 1 1 2 2 2 1 1 0 1 1 1 0 0 1 3 4 4 2 3 3 2 2 2 1 2 2 3 3 3 3 5 6 7 7
3 3 2 2 2 2 2 2 1 1 0 0 0 0 1 1 1 1 2 3 3 4 4 4 3 3 2 2 3 2 3 3 3 3 3 4 5 8
3 3 3 2 1 1 1 1 1 1 1 1 1 2 2 2 1 0 1 1 2 3 4 5 4 4 3 3 3 3 3 3 3 3 3 3 3 4
2 2 1 1 1 1 1 1 1 1 2 2 2 2 1 1 1 1 1 1 1 2 2 4 6 5 4 5 5 4 4 3 3 3 3 4 4 5
1 0 0 0 1 1 1 1 1 1 1 2 2 1 1 1 2 1 2 2 2 3 2 2 2 3 5 5 5 5 5 4 4 4 3 4 5 5
2 1 2 2 2 3 2 2 2 2 2 2 2 2 2 2 2 2 2 2 3 4 3 3 2 2 2 4 7 6 5 4 4 4 4 5 6 5
2 3 3 3 4 3 3 3 3 3 3 3 3 3 3 3 3 3 3 3 4 4 4 3 3 3 4 5 4 7 6 4 4 4 5 5 6 6
3 4 4 4 4 4 4 4 4 3 3 3 4 4 4 4 4 4 4 4 4 5 4 4 4 5 6 5 4 4 8 6 5 5 4 4 5 6
3 4 4 4 4 5 5 4 4 4 4 4 4 4 4 4 5 5 5 6 5 5 5 5 5 6 4 3 4 4 4 7 7 5 4 4 4 4
3 4 4 4 4 4 4 4 4 4 4 4 4 4 4 4 5 6 6 5 5 5 6 5 4 3 4 5 6 5 4 3 4 6 7 7 4 4
4 4 4 4 4 3 3 4 4 4 4 4 4 4 4 5 5 5 6 6 6 6 5 4 3 3 4 5 5 5 5 4 3 2 3 5 8 10
Wind_Direction
251 231 225 242 219 204 191 184 177 199 248 271 285 311 303 266 216 179 180 171 166 167 162 154 153 159 163 167 169 166 169 174 175 171 170 173 180 187
257 214 216 239 186 190 188 180 180 179 203 243 243 301 311 59 81 125 153 144 145 153 156 152 154 156 160 163 164 167 170 171 169 171 177 179 183 194
13 19 272 117 99 107 127 138 149 156 189 247 219 20 98 75 66 81 112 124 130 136 141 152 158 159 161 164 169 174 175 175 175 182 188 188 194 203
359 12 337 70 71 88 116 143 164 171 174 201 196 140 147 128 93 88 86 106 116 130 141 149 156 167 171 177 178 178 179 182 185 190 192 194 199 206
332 262 345 83 68 78 120 147 168 166 162 168 193 178 184 133 92 84 82 72 95 115 133 143 150 155 164 179 185 183 187 190 191 194 199 199 200 206
360 350 175 163 192 189 162 180 157 136 132 145 153 146 156 144 129 122 100 71 77 94 116 133 140 147 166 179 178 187 191 194 198 203 204 203 206 211
27 13 15 67 93 135 147 172 159 155 153 148 152 136 140 150 184 168 157 120 71 102 108 121 137 149 179 187 182 185 195 199 202 207 209 210 213 217
26 4 10 22 21 57 99 152 167 169 178 171 176 181 202 198 180 166 158 147 171 153 136 143 136 176 200 201 205 206 209 210 216 218 217 218 220 221
32 9 14 19 30 32 45 60 85 168 181 183 191 208 206 200 175 173 170 174 195 186 154 168 173 189 213 212 210 214 216 218 226 229 230 228 225 225
320 253 333 344 0 54 73 36 2 338 244 207 204 211 208 202 191 184 176 146 121 178 168 183 205 223 235 222 217 214 221 223 225 230 233 233 232 232
316 311 223 301 329 76 107 56 337 332 9 88 159 174 177 180 174 158 161 158 165 186 173 181 192 241 260 250 228 223 225 229 232 232 235 233 233 236
301 310 287 296 320 198 175 197 277 297 342 28 44 54 97 129 153 179 179 177 173 197 188 179 185 191 246 246 234 231 233 237 239 240 237 237 235 230
262 276 281 285 291 216 189 209 242 263 314 31 38 20 34 91 180 196 195 192 191 212 192 181 192 198 211 240 255 240 231 236 243 247 241 240 233 221
247 259 260 257 249 229 212 233 224 165 166 115 107 308 279 259 246 224 205 202 213 218 197 186 199 205 204 239 260 247 241 238 236 247 248 254 242 232
243 253 261 251 232 244 263 246 181 169 182 198 229 246 243 242 244 249 235 227 237 231 210 202 203 208 211 232 244 247 262 254 235 240 250 251 249 240
250 279 277 231 231 277 282 246 200 195 201 222 246 260 261 242 233 234 236 249 257 265 238 218 207 205 222 235 232 245 247 242 237 245 255 258 248 238
196 159 15 325 290 288 288 279 247 209 217 230 234 257 270 265 264 255 230 224 236 254 266 262 231 223 231 231 237 241 243 250 247 243 251 267 264 248
159 225 248 251 256 265 269 272 260 249 241 234 236 240 248 257 262 258 241 233 245 250 248 249 243 254 255 250 225 235 242 253 257 248 249 262 271 265
198 240 248 254 257 259 258 256 256 255 244 237 242 244 246 249 253 256 249 247 252 254 251 241 231 230 249 265 246 214 229 246 249 251 250 254 267 273
234 245 249 251 253 252 253 254 255 253 247 242 242 244 242 244 250 254 252 251 254 256 255 244 232 230 240 255 262 248 219 226 240 252 257 262 269 271
249 255 255 255 255 254 256 255 252 251 252 247 247 246 243 242 248 252 254 251 250 255 256 255 247 236 241 234 245 249 240 219 223 239 247 258 270 270
254 259 262 258 256 257 258 255 258 260 257 251 251 246 242 240 246 250 250 251 251 251 255 260 258 229 222 227 243 251 258 257 237 235 236 234 240 247
259 260 262 263 258 255 253 253 256 260 259 258 257 253 249 248 250 248 246 248 252 253 256 256 251 235 235 233 240 248 251 256 258 257 267 260 246 250
Height
1512 1511 1511 1511 1511 1511 1512 1513 1514 1513 1513 1514 1515 1515 1515 1515 1515 1516 1517 1518 1519 1521 1522 1523 1525 1526 1527 1528 1530 1532 1533 1534 1536 1537 1538 1539 1541 1542
1510 1510 1509 1509 1509 1510 1510 1510 1511 1512 1512 1512 1513 1513 1513 1513 1513 1514 1515 1516 1517 1518 1520 1521 1522 1524 1525 1527 1528 1530 1531 1532 1533 1535 1536 1537 1538 1539
1509 1509 1508 1508 1508 1508 1508 1508 1509 1510 1509 1510 1511 1511 1511 1511 1511 1512 1513 1513 1515 1516 1517 1518 1520 1522 1523 1525 1526 1527 1529 1530 1531 1532 1533 1535 1536 1537
1508 1508 1507 1507 1506 1507 1507 1507 1507 1507 1508 1508 1508 1509 1509 1509 1509 1509 1510 1512 1513 1514 1515 1516 1518 1519 1521 1523 1524 1525 1526 1528 1529 1530 1531 1532 1533 1534
1507 1506 1506 1505 1505 1505 1505 1505 1505 1506 1506 1506 1506 1507 1507 1508 1507 1508 1509 1510 1511 1512 1513 1514 1516 1517 1519 1520 1522 1523 1524 1525 1526 1527 1528 1529 1530 1531
1505 1505 1505 1504 1504 1504 1504 1504 1504 1504 1504 1504 1504 1505 1505 1506 1506 1506 1507 1508 1508 1510 1511 1512 1513 1515 1516 1518 1519 1520 1521 1522 1523 1524 1525 1526 1527 1527
1504 1504 1503 1503 1503 1502 1502 1502 1502 1502 1502 1502 1502 1502 1503 1503 1504 1504 1505 1506 1506 1507 1508 1510 1511 1512 1514 1515 1516 1517 1518 1519 1520 1521 1522 1522 1523 1523
1503 1502 1502 1501 1501 1501 1500 1501 1501 1501 1500 1500 1500 1500 1501 1502 1502 1502 1503 1503 1504 1506 1506 1507 1509 1510 1511 1512 1513 1514 1515 1516 1517 1518 1518 1519 1519 1520
1501 1501 1500 1500 1500 1500 1499 1499 1499 1499 1499 1499 1498 1499 1499 1499 1500 1500 1501 1502 1502 1503 1504 1504 1506 1507 1509 1510 1511 1511 1512 1513 1514 1514 1515 1515 1515 1515
1500 1499 1499 1498 1498 1498 1498 1498 1497 1497 1497 1496 1497 1497 1498 1498 1498 1499 1499 1500 1501 1502 1502 1503 1504 1505 1506 1507 1508 1509 1509 1510 1510 1510 1511 1511 1511 1511
1498 1498 1497 1497 1497 1497 1496 1496 1496 1496 1496 1495 1495 1496 1496 1496 1497 1497 1497 1498 1498 1499 1500 1501 1501 1502 1503 1504 1505 1506 1506 1507 1507 1507 1507 1506 1506 1507
1497 1496 1496 1496 1496 1495 1494 1494 1493 1494 1494 1494 1493 1494 1494 1494 1495 1495 1495 1496 1496 1497 1498 1499 1499 1500 1500 1501 1502 1503 1503 1503 1503 1503 1503 1503 1503 1503
1495 1494 1494 1494 1493 1493 1492 1492 1491 1492 1491 1491 1491 1491 1491 1492 1492 1493 1493 1494 1494 1494 1496 1496 1496 1497 1497 1497 1498 1499 1499 1499 1499 1499 1499 1499 1499 1499
1493 1493 1492 1492 1491 1491 1490 1490 1490 1490 1489 1489 1489 1489 1489 1489 1490 1490 1491 1491 1492 1492 1493 1494 1493 1494 1494 1494 1494 1494 1495 1496 1495 1495 1495 1495 1495 1495
1491 1490 1490 1489 1489 1488 1488 1487 1487 1487 1487 1487 1486 1487 1487 1487 1487 1488 1488 1488 1489 1489 1490 1490 1491 1491 1491 1490 1490 1490 1490 1491 1491 1491 1491 1491 1490 1490
1489 1488 1487 1487 1486 1486 1485 1485 1485 1485 1485 1485 1484 1485 1485 1485 1485 1485 1485 1485 1485 1485 1486 1487 1487 1487 1487 1487 1487 1486 1486 1486 1487 1487 1487 1486 1486 1486
1486 1486 1485 1484 1484 1483 1483 1482 1482 1482 1482 1482 1482 1482 1482 1482 1482 1482 1482 1482 1481 1482 1482 1483 1483 1483 1483 1483 1483 1483 1483 1483 1483 1483 1482 1482 1482 1481
1484 1483 1482 1482 1481 1480 1480 1480 1479 1479 1479 1479 1479 1479 1479 1478 1478 1478 1478 1478 1478 1478 1478 1479 1479 1479 1479 1479 1480 1479 1479 1479 1479 1479 1478 1478 1477 1477
1481 1480 1480 1479 1478 1478 1477 1477 1476 1476 1476 1476 1475 1475 1475 1475 1475 1474 1474 1474 1474 1474 1474 1475 1475 1474 1474 1473 1474 1475 1475 1474 1474 1474 1474 1473 1473 1472
1478 1478 1477 1476 1475 1475 1474 1474 1473 1473 1472 1472 1472 1472 1471 1471 1470 1470 1470 1470 1470 1469 1470 1470 1470 1470 1470 1470 1469 1469 1470 1470 1470 1469 1469 1469 1469 1468
1475 1474 1474 1473 1472 1471 1471 1470 1469 1469 1468 1468 1468 1467 1467 1466 1466 1466 1466 1465 1465 1465 1464 1465 1465 1466 1465 1465 1465 1465 1466 1466 1466 1465 1465 1465 1464 1463
1471 1471 1470 1470 1469 1468 1467 1466 1465 1465 1464 1464 1463 1463 1462 1462 1461 1461 1461 1460 1460 1460 1459 1460 1460 1460 1460 1460 1460 1460 1460 1461 1461 1461 1461 1461 1460 1459
1468 1467 1467 1466 1465 1464 1463 1462 1462 1461 1460 1459 1458 1458 1457 1457 1456 1456 1456 1455 1455 1455 1455 1455 1455 1455 1456 1456 1456 1456 1456 1456 1456 1456 1457 1457 1457 1457